This demonstration page uses our WeatherBlox Daily Observations layout. Learn more.

Left ArrowRight Arrow

36.19886, -115.1175

Hourly Observations for May 24, 2022

Temp ( °F °C ) Dew Point ( °F °C ) Humidity (%) Winds ( mph kmh ) Pressure ( in mb ) Visibility ( mi km ) Precip ( " mm )
12:53 am 00:53 Clear 73 22.8 28 -2.2 19 19 NNE 6 9 29.82 1010 10 16 0.00 0.00
1:53 am 01:53 Clear 75 23.9 19 -7.2 12 12 NE 5 7 29.82 1010 10 16 0.00 0.00
2:53 am 02:53 Clear 74 23.3 14 -10 10 10 NE 7 11 29.85 1011 10 16 0.00 0.00
3:53 am 03:53 Clear 74 23.3 16 -8.9 11 11 Calm 29.85 1011 10 16 0.00 0.00
4:53 am 04:53 Clear 71 21.7 18 -7.8 13 13 Calm 29.87 1012 10 16 0.00 0.00
5:53 am 05:53 Sunny 69 20.6 21 -6.1 16 16 W 5 7 29.89 1012 10 16 0.00 0.00
6:53 am 06:53 Sunny 71 21.7 23 -5 16 16 Calm 29.91 1013 10 16 0.00 0.00
7:53 am 07:53 Sunny 75 23.9 22 -5.6 14 14 S 3 6 29.92 1013 10 16 0.00 0.00
8:53 am 08:53 Sunny 79 26.1 18 -7.8 10 10 VRB 5 7 29.92 1013 10 16 0.00 0.00
9:53 am 09:53 Sunny 81 27.2 16 -8.9 9 9 ESE 3 6 29.91 1013 10 16 0.00 0.00
10:53 am 10:53 Sunny 83 28.3 16 -8.9 8 8 Calm 29.91 1013 10 16 0.00 0.00
11:53 am 11:53 Sunny 86 30 19 -7.2 8 8 Calm 29.89 1012 10 16 0.00 0.00
12:53 pm 12:53 Sunny 86 30 19 -7.2 8 8 VRB 3 6 29.88 1012 10 16 0.00 0.00
1:53 pm 13:53 Sunny 90 32.2 19 -7.2 7 7 undefined N/A 29.84 1011 10 16 0.00 0.00
2:53 pm 14:53 Sunny 91 32.8 19 -7.2 7 7 undefined N/A 29.82 1010 10 16 0.00 0.00
3:53 pm 15:53 Sunny 90 32.2 20 -6.7 8 8 undefined N/A 29.79 1009 10 16 0.00 0.00
4:53 pm 16:53 Sunny 92 33.3 20 -6.7 7 7 SSW 7 11 29.77 1008 10 16 0.00 0.00
5:53 pm 17:53 Sunny 92 33.3 20 -6.7 7 7 SSE 7 11 29.75 1008 10 16 0.00 0.00
6:53 pm 18:53 Sunny 92 33.3 19 -7.2 7 7 S 6 9 29.75 1007 10 16 0.00 0.00
7:53 pm 19:53 Clear 88 31.1 18 -7.8 7 7 ESE 10 17 29.76 1008 10 16 0.00 0.00
8:53 pm 20:53 Clear 86 30 18 -7.8 8 8 ESE 3 6 29.77 1008 10 16 0.00 0.00
9:53 pm 21:53 Clear 84 28.9 21 -6.1 10 10 NW 5 7 29.78 1008 10 16 0.00 0.00
10:53 pm 22:53 Clear 82 27.8 22 -5.6 11 11 WNW 3 6 29.78 1009 10 16 0.00 0.00
11:53 pm 23:53 Clear 78 25.6 23 -5 13 13 NW 5 7 29.78 1009 10 16 0.00 0.00

Powered by AerisWeather